Fargo, ND

4:27 PM CDT on July 25, 2017 (GMT -0500)
Hector International

Weather History for KFAR - August, 2012

Change the Weather History Date:

Tuesday, August 7, 2012

  Actual Average Record
Temperature  
Mean Temperature 70 °F 71 °F  
Max Temperature 83 °F 83 °F 101 °F (1949)
Min Temperature 56 °F 59 °F 42 °F (1904)
Degree Days  
Heating Degree Days 0 1  
Month to date heating degree days 2 3  
Since 1 June heating degree days 22 92  
Since 1 July heating degree days 2 19  
Cooling Degree Days 5 6  
Month to date cooling degree days 46 48  
Year to date cooling degree days 645 388  
Since 1 June cooling degree days 587 357  
Growing Degree Days 18 (Base 50)    
Moisture  
Dew Point 55 °F    
Average Humidity 63    
Maximum Humidity 86    
Minimum Humidity 39    
Precipitation  
Precipitation T in 0.08 in 1.61 in (1931)
Month to date precipitation 0.02 0.50  
Year to date precipitation 10.32 14.00  
Snow  
Snow 0.00 in 0.00 in 0.00 in ()
Month to date snowfall 0.0 0.0  
Since 1 June snowfall 0.0 0.0  
Since 1 July snowfall 0.0 0.0  
Snow Depth 0.00 in    
Sea Level Pressure  
Sea Level Pressure 30.01 in    
Wind  
Wind Speed 7 mph (NE)    
Max Wind Speed 15 mph    
Max Gust Speed 18 mph    
Visibility 10 miles    
Events Rain    
T = Trace of Precipitation, MM = Missing Value Source: NWS Daily Summary

Daily Weather History Graph

Daily Weather History Graph

Search for Another Location

Airport or City:

Trip Planner

Search our weather history database for the weather conditions in past years. The results will help you decide how hot, cold, wet, or windy it might be!

Date:

Astronomy

Aug. 07, 2012 Rise Set
Actual Time 6:15 AM CDT 8:49 PM CDT
Civil Twilight 5:40 AM CDT 9:24 PM CDT
Nautical Twilight 4:57 AM CDT 10:07 PM CDT
Astronomical Twilight 4:06 AM CDT 10:57 PM CDT
Moon 11:01 PM CDT (8/7) 12:32 PM CDT (8/7)
Length of Visible Light 15h 43m
Length of Day
14h 34m
Waning Gibbous, 69% of the Moon is Illuminated
Aug 7
Waning Gibbous
Aug 9
Last Quarter
Aug 17
New
Aug 24
First Quarter
Aug 31
Full

Hourly Weather History & Observations

Time (CDT) Temp. Heat Index Dew Point Humidity Pressure Visibility Wind Dir Wind Speed Gust Speed Precip Events Conditions
12:53 AM 69.1 °F - 57.9 °F 68% 29.96 in 10.0 mi NE 8.1 mph - N/A   Clear
1:53 AM 66.0 °F - 57.0 °F 73% 29.98 in 10.0 mi NNE 5.8 mph - N/A   Clear
2:53 AM 63.0 °F - 55.0 °F 75% 29.98 in 10.0 mi NNE 4.6 mph - N/A   Clear
3:53 AM 59.0 °F - 53.1 °F 81% 29.99 in 10.0 mi North 4.6 mph - N/A   Clear
4:53 AM 60.1 °F - 52.0 °F 75% 29.99 in 10.0 mi NNE 3.5 mph - N/A   Clear
5:53 AM 57.0 °F - 51.1 °F 81% 30.01 in 10.0 mi WNW 3.5 mph - N/A   Clear
6:53 AM 55.9 °F - 51.1 °F 84% 30.03 in 10.0 mi North 4.6 mph - N/A   Clear
7:53 AM 63.0 °F - 54.0 °F 72% 30.03 in 10.0 mi NNE 3.5 mph - N/A   Clear
8:53 AM 68.0 °F - 54.0 °F 61% 30.04 in 10.0 mi NNE 4.6 mph - N/A   Clear
9:53 AM 72.0 °F - 55.9 °F 57% 30.04 in 10.0 mi NE 5.8 mph - N/A   Clear
10:53 AM 77.0 °F - 51.8 °F 41% 30.05 in 10.0 mi NE 8.1 mph - N/A   Clear
11:53 AM 79.0 °F - 54.0 °F 42% 30.05 in 10.0 mi NE 10.4 mph - N/A   Clear
12:53 PM 79.0 °F - 52.0 °F 39% 30.06 in 10.0 mi North 6.9 mph - N/A   Mostly Cloudy
1:53 PM 79.0 °F - 54.0 °F 42% 30.03 in 10.0 mi North 6.9 mph - 0.00 in Rain Light Rain
2:53 PM 82.0 °F 81.2 °F 53.1 °F 37% 30.02 in 10.0 mi East 4.6 mph - N/A   Partly Cloudy
3:53 PM 82.0 °F 82.0 °F 57.9 °F 44% 30.01 in 10.0 mi NE 6.9 mph - N/A   Clear
4:53 PM 80.1 °F 80.2 °F 55.9 °F 43% 30.01 in 10.0 mi NE 11.5 mph - N/A   Clear
5:53 PM 78.1 °F - 55.9 °F 46% 30.00 in 10.0 mi East 8.1 mph - N/A   Clear
6:53 PM 77.0 °F - 55.9 °F 48% 30.00 in 10.0 mi East 6.9 mph - N/A   Clear
7:53 PM 77.0 °F - 55.0 °F 47% 29.99 in 10.0 mi SE 6.9 mph - N/A   Mostly Cloudy
8:53 PM 73.9 °F - 57.9 °F 57% 29.96 in 10.0 mi ESE 6.9 mph - 0.00 in   Mostly Cloudy
9:53 PM 72.0 °F - 57.9 °F 61% 30.01 in 10.0 mi NE 9.2 mph - N/A   Scattered Clouds
10:53 PM 66.9 °F - 60.1 °F 79% 30.02 in 10.0 mi NNE 12.7 mph - 0.00 in   Scattered Clouds
11:53 PM 66.0 °F - 60.1 °F 81% 30.01 in 10.0 mi ENE 11.5 mph - 0.00 in   Mostly Cloudy